Regional Weather Roundup
Issued by NWS

Home | Current Version | Previous Version | Graphics & Text | Print | Product List | Glossary On
Versions: 1 2 3 4 5 6 7 8 9 10 11 12 13 14 15 16 17 18 19 20 21 22 23 24 25 26 27 28 29 30 31 32 33 34 35 36 37 38 39 40 41 42 43 44 45 46 47 48 49 50
000
ASUS43 KMKX 272221
RWRWI

WISCONSIN REGIONAL WEATHER ROUNDUP
NATIONAL WEATHER SERVICE MILWAUKEE/SULLIVAN WI
400 PM CST THU NOV 27 2014

NOTE: "FAIR" INDICATES FEW OR NO CLOUDS BELOW 12,000 FEET WITH NO
SIGNIFICANT WEATHER AND/OR OBSTRUCTIONS TO VISIBILITY.

WIZ001-002-006>008-014>016-023>028-272300-
NORTHWEST WISCONSIN

CITY           SKY/WX    TMP DP  RH WIND       PRES   REMARKS
SUPERIOR ARPT  CLEAR      8  -4  57 SW5       30.41F WCI   0
ASHLAND        CLEAR      8  -1  66 SW5       30.41S WCI   0
HAYWARD        CLEAR      7  -2  66 SW5       30.37F WCI  -2
SIREN          CLEAR      8  -5  54 SW5       30.39F WCI   0
CUMBERLAND     CLEAR      9  -6  52 CALM      30.37F
RICE LAKE      CLEAR      9  -6  51 CALM      30.41F
CHETEK         CLEAR      8  -6  54 CALM      30.40F
LADYSMITH      CLEAR      9  -3  60 CALM      30.39S
EAU CLAIRE     CLEAR      8  -5  55 W7        30.42S WCI  -3
MENOMONIE      CLEAR     10  -4  51 CALM      30.42F
NEW RICHMOND   CLEAR      9  -5  53 CALM      30.41F
OSCEOLA        CLEAR      9  -5  53 CALM      30.44F
$$

WIZ003>005-009-010-017-018-272300-
NORTH CENTRAL WISCONSIN

CITY           SKY/WX    TMP DP  RH WIND       PRES   REMARKS
MANITOWISH WTR CLOUDY     6  -1  73 NW6       30.30S WCI  -5
ARBOR VITAE    CLEAR     11   3  70 NW3       30.29F
WOODRUFF       CLEAR     11   3  70 NW3       30.29F
RHINELANDER    CLEAR      8  -1  66 NW7       30.30R WCI  -3
EAGLE RIVER    LGT SNOW  10   3  72 N3        30.28S
LAND O LAKES   MOCLDY     9   4  78 CALM      30.28F HAZE
PHILLIPS       CLEAR      9  -1  62 CALM      30.33R
TOMAHAWK       CLEAR      9   1  70 CALM      30.32S
MEDFORD        CLEAR      9   0  65 W7        30.34R WCI  -2
MERRILL        CLEAR     13   0  58 NW5       30.33S WCI   5
$$

WIZ029-030-035-036-043>047-272300-
CENTRAL WISCONSIN

CITY           SKY/WX    TMP DP  RH WIND       PRES   REMARKS
WAUSAU         FAIR      11   2  67 W10       30.34R WCI  -3
MOSINEE        CLEAR     10   3  72 W10       30.36R WCI  -3
MARSHFIELD     CLEAR      9  -2  61 NW9       30.37R WCI  -4
STEVENS POINT  CLEAR     11   2  66 W8        30.37R WCI  -1
WAUPACA        CLEAR     17   5  59 W8        30.38R WCI   6
WAUTOMA        CLEAR     14   5  67 NW10      30.39R WCI   1
WISC RAPIDS    CLEAR     11  -2  56 NW7       30.40R WCI   0
CAMP DOUGLAS   CLEAR     12   3  67 W8        30.41R WCI   0
$$

WIZ011>013-019>022-031-037>040-048>050-272300-
NORTHEAST WISCONSIN

CITY           SKY/WX    TMP DP  RH WIND       PRES   REMARKS
ANTIGO         CLEAR      9   0  67 NW5       30.31R WCI   0
SHAWANO        CLEAR     18   5  57 W3        30.36R
OCONTO         CLEAR     16   3  57 N3        30.36S
STURGEON BAY   MOCLDY    16   1  53 NW9       30.34R WCI   4
GREEN BAY      CLEAR     15   4  61 MISG      30.36R
MANITOWOC      CLEAR     16   8  71 NW6       30.36R WCI   7
APPLETON       PTCLDY    16   3  57 NW8       30.35S WCI   5
CLINTONVILLE   CLEAR     16   5  62 W8        30.36R WCI   5
OSHKOSH        CLEAR     15   5  64 MISG      30.36R
$$

WIZ032>034-041-042-053>061-272300-
SOUTHWEST WISCONSIN

CITY           SKY/WX    TMP DP  RH WIND       PRES   REMARKS
LA CROSSE      CLEAR     13  -1  54 N7        30.45S WCI   3
SPARTA         CLEAR     11   1  61 NW6       30.44R WCI   2
VIROQUA        CLEAR     10  -2  58 NW5       30.38S WCI   2
BOSCOBEL       CLEAR     17  -4  39 N7        30.44R WCI   8
PRAIRIE DU CHI CLEAR     15  -3  43 W8        30.45R WCI   5
PLATTEVILLE    CLEAR     16   3  57 CALM      30.40R
$$

WIZ056-057-062-063-064-067-068-272300-
SOUTH CENTRAL WISCONSIN

CITY           SKY/WX    TMP DP  RH WIND       PRES   REMARKS
REEDSBURG      CLEAR     13   4  65 NW5       30.40R WCI   6
BARABOO/DELLS  CLEAR     13   4  65 NW7       30.39R WCI   3
LONE ROCK      CLEAR     18   2  49 NW7       30.43R WCI   9
MINERAL POINT  FLURRIES  18   3  53 NW6       30.38R WCI   9
MADISON        PTCLDY    16   6  65 NW7       30.39R WCI   6
MIDDLETON      CLEAR     17   6  63 NW7       30.40R WCI   7
WATERTOWN      CLOUDY    17  10  73 NW8       30.37R WCI   7
MONROE         CLOUDY    21  10  63 W8        30.37R WCI  12
JANESVILLE     PTCLDY    19  10  68 NW12      30.38R WCI   7
$$

WIZ051-052-058>065-066-070>072-272300-
SOUTHEAST WISCONSIN

CITY           SKY/WX    TMP DP  RH WIND       PRES   REMARKS
MILWAUKEE      MOCLDY    20   8  60 W9        30.37R WCI   9
WAUKESHA       FLURRIES  16   9  73 W9        30.37R WCI   4
MILWAUKEE/TIMM PTCLDY    18   7  62 NW10      30.38R WCI   6
RACINE         CLOUDY    20  11  68 NW6       30.39R WCI  12
BURLINGTON     FLURRIES  17  11  80 NW9       30.38R WCI   5
KENOSHA        FLURRIES  20  13  74 NW10      30.37R WCI   9
FOND DU LAC    PTCLDY    15   6  67 NW5       30.37R WCI   8
SHEBOYGAN      CLEAR     16   6  65 NW9       30.36R WCI   4
WEST BEND      MOCLDY    18   9  68 W8        30.36R WCI   7
JUNEAU         MOCLDY    15   8  73 NW3       30.38R
$$

LSZ147-162-272300-
LAKE SUPERIOR

STATION/POSITION TIME  TEMP    WIND        PRES    WAVE
                       AIR SEA DIR/SP/G            HT/PER
                 (UTC) (F)     (DEG/KT/KT) (MB)    (FT/S)
DEVILS ISLAND    2200   12     240/ 11/ 14 1030.5F
PORT WING        2100   10     210/  6/ 10 1030.1F
SAXON HARBOR     2100   14     240/  1/  7 1029.5R
$$

LMZ867-665-643>646-272300-
LAKE MICHIGAN

STATION/POSITION TIME  TEMP    WIND        PRES    WAVE
                       AIR SEA DIR/SP/G            HT/PER
                 (UTC) (F)     (DEG/KT/KT) (MB)    (FT/S)
CHAMBERS ISLAND  2100   19     290/  7/ 13 1027.4R
N MID LAKE BUOY  2150   20 42  320/ 19/ 23 1027.2R   3/ 5
NORTHPORT PIER   2110   18     300/  8/ 21 1027.1R
SISTER BAY       2128          330/ 18/ 23   N/A
ALGOMA LAKESHORE 2043          310/ 12/ 17   N/A
KEWAUNEE LAKESHO 2100   18     330/  9/ 13 1026.5R
SHEBOYGAN LAKESH 2200   18 34  320/ 10/ 11 1029.6R
PORT WASHINGTON  2100   20     300/  5/ 11 1028.8
MILWAUKEE LAKESH 2200   20     310/ 11/ 15   N/A
S MID LAKE BUOY  2150   26 42  320/ 17/ 21 1028.2R
KENOSHA   LAKESH 2200   21     300/  8/ 13 1028.4R
$$

TC  - TEMPERATURE IN CELSIUS
VSB - VISIBILITY IN STATUTE MILES
WCI - WIND CHILL INDEX
HX  - HEAT INDEX



USA.gov is the U.S. government's official web portal to all federal, state and local government web resources and services.